Tracking 27420 objects as of 28-May-2023
HD Live streaming from Space Station
objects crossing your sky now

DELTA 1 DEB

Track DELTA 1 DEB now!
10-day predictions


NORAD ID: 9042
Int'l Code: 1975-004DG
Perigee: 720.7 km
Apogee: 808.4 km
Inclination: 97.9 °
Period: 100.0 minutes
Semi major axis: 7135 km
RCS: 0.263 m2 (medium)
Launch date: January 22, 1975
Source: United States (US)
Launch site: AIR FORCE WESTERN TEST RANGE (AFWTR)

Note: This is SATELLITE DEBRIS
Your satellite tracking list
Your tracking list is empty




NASA's NSSDC Master Catalog

Two Line Element Set (TLE):
1 09042U 75004DG  23146.89998456  .00000230  00000-0  83172-4 0  9995
2 09042  97.8767 161.2482 0061500 226.3235 133.2849 14.40327761478734
Source of the keplerian elements: AFSPC